Find Starlink 31763

NORAD ID: 59623 Int'l Des: 2024-080 Owner: SPXS Country: US Constellation: starlink operational
LEOCIRCULAR

Current View

Loading 3D Globe...

About Starlink 31763

Description loading...

Upcoming Passes

Passes for default location (London). Set your location on the main map for personalized predictions.

Altitude History

Loading altitude history...

Two-Line Element Set

1 59623U 24080Y 26150.78540944 -.00000849 00000-0 -21346-4 0 9997
2 59623 43.0010 294.6592 0000980 221.3506 138.7272 15.27574941117080
Epoch: May 30, 2026 • Age: 21 hours

Current Status

Altitude 481.8 km
Velocity 7.63 km/s
Sub-Earth Point 11.29°N, 31.2°W
Launch Date Apr 28, 2024
Age 2 years
Type internet

Technical Details

Classification Payload
Mass 730.00 kg
Dry Mass 700.00 kg
Total Mass 730.00 kg
Length 0.30 m
Diameter 4.10 m
Span 29.00 m
Shape Box + pan
Manufacturer SPXS
Bus Type Starlink V2M
Phase Status In Orbit
Owner/State SPXS/US

Most Searched